CZ-4 DEB, 27676

Orbit data source: Space-Track

CZ-4 DEB, 27676 is space debris in SSO originally from a launch on Thu, 14 Oct 1999 UTC launched from the Taiyaun Space Center, China (TSC). Debris objects in space refer to the collection of defunct objects orbiting the Earth. Examples of debris include non-operational satellites, rocket bodies, and fragments generated from explosions, collisions, or faulty payload assembly.

Loading next visibility...
Identifier
27676, 1999-057MQ
Orbit
SSO
Country
Flag of CNCN / PRC
Related business
Manufacturer
Unknown
Mission
Spacecraft
Bus & Motor
Unknown
Mass
Unknown
Launch date (UTC)
1999-10-14 (26 years ago)
Launch vehicle
Unknown
Launch site
Taiyaun Space Center, China (TSC)
Object type
Payload
Rocket body
Debris
Shape & HBR
Unknown shape, 0.1 m
Radar Cross Section
Small (<0.1 m²)

Expand to show TLE details & history
Last TLE update: 2 weeks ago

TLE from 2 weeks ago
0 CZ-4 DEB
1 27676U 99057MQ  25285.60757648  .00000992  00000-0  30773-3 0  9996
2 27676  98.6888 339.0848 0098883 271.3090  87.6772 14.40702217191028
Epoch: 2025-10-12T14:34Z
TLE epoch observation values (Epoch: 2025-10-12T14:34:54.607Z)
Latitude
-0°
Longitude
98.93499°
Altitude
756.96 km
Speed
7.477 km/s
True Right ascension
22h 36m 20s
True Declination
0° 00' 00"
Sunlit
Object was in full shadow at epoch
Visualization orbit readout
Latitude
Unknown
Longitude
Unknown
Altitude
Unknown
Speed
Unknown
Apparent Right ascension
Unknown
Apparent Declination
Unknown
Sunlit
N/A
Visualization observer readout
Local Sidereal Time
10:40:55
Azimuth
Unknown
Elevation
Unknown
Doppler factor
Unknown
Orbital elements
Apogee altitude
823.827 km
Perigee altitude
682.791 km
Semi-major axis
7,131.446 km
Eccentricity
0.00989
Inclination
98.6888°
RAAN
339.0848°
Arg. of periapsis
271.309°
True anomaly
88.80988°
Mean anomaly
87.6772°
Eccentric anomaly
88.24349°
Mean motion
3.60393 °/min
Orbital period
99.89 mins
BSTAR
0.00030773
Loading maneuver chart data...
Computing Atmospheric mass density...

Documentation

Showing up to 5 results
|